TimeGMT,TemperatureF,Dew PointF,Humidity,Sea Level PressureIn,VisibilityMPH,Wind Direction,Wind SpeedMPH,Gust SpeedMPH,PrecipitationIn,Events,Conditions,WindDirDegrees,DateUTC
12:00 AM,35,33,87,30.37,12,WNW,8.9,,,,Scattered Clouds,300,2013-02-07 00:00:00
12:00 AM,35.6,32.0,87,30.33,6.2,WNW,9.2,-,N/A,,Partly Cloudy,300,2013-02-07 00:00:00
12:30 AM,35.6,32.0,87,30.33,6.2,NW,5.8,-,N/A,,Partly Cloudy,310,2013-02-07 00:30:00
1:00 AM,35.6,32.0,87,30.33,6.2,WNW,9.2,-,N/A,,Partly Cloudy,300,2013-02-07 01:00:00
1:30 AM,35.6,32.0,87,30.33,6.2,West,8.1,-,N/A,,Partly Cloudy,280,2013-02-07 01:30:00
2:00 AM,33.8,32.0,93,30.33,6.2,West,9.2,-,N/A,,Partly Cloudy,280,2013-02-07 02:00:00
2:30 AM,33.8,32.0,93,30.33,6.2,WNW,5.8,-,N/A,,Partly Cloudy,300,2013-02-07 02:30:00
3:00 AM,35.6,33.8,93,30.30,6.2,WNW,6.9,-,N/A,,Partly Cloudy,290,2013-02-07 03:00:00
3:30 AM,35.6,33.8,93,30.30,6.2,WNW,8.1,-,N/A,,Mostly Cloudy,290,2013-02-07 03:30:00
4:00 AM,35.6,33.8,93,30.30,6.2,WNW,8.1,-,N/A,,Mostly Cloudy,290,2013-02-07 04:00:00
4:30 AM,35.6,33.8,93,30.27,6.2,WNW,8.1,-,N/A,,Mostly Cloudy,300,2013-02-07 04:30:00
5:00 AM,35.6,33.8,93,30.27,6.2,WNW,8.1,-,N/A,,Mostly Cloudy,300,2013-02-07 05:00:00
5:30 AM,37.4,33.8,87,30.27,6.2,WNW,8.1,-,N/A,,Mostly Cloudy,290,2013-02-07 05:30:00
6:00 AM,37,34,83,30.30,12,West,6.7,,,,Scattered Clouds,280,2013-02-07 06:00:00
6:00 AM,37.4,33.8,87,30.27,6.2,West,5.8,-,N/A,,Mostly Cloudy,280,2013-02-07 06:00:00
6:30 AM,37.4,33.8,87,30.27,6.2,WSW,4.6,-,N/A,,Mostly Cloudy,250,2013-02-07 06:30:00
7:00 AM,37.4,33.8,87,30.24,6.2,WSW,4.6,-,N/A,,Mostly Cloudy,250,2013-02-07 07:00:00
7:30 AM,37.4,33.8,87,30.24,6.2,WSW,8.1,-,N/A,,Mostly Cloudy,250,2013-02-07 07:30:00
8:00 AM,37.4,33.8,87,30.24,6.2,WSW,8.1,-,N/A,,Mostly Cloudy,240,2013-02-07 08:00:00
8:30 AM,37.4,33.8,87,30.21,6.2,SW,8.1,-,N/A,,Mostly Cloudy,230,2013-02-07 08:30:00
9:00 AM,37.4,35.6,93,30.21,6.2,SW,9.2,-,N/A,,Mostly Cloudy,230,2013-02-07 09:00:00
9:30 AM,39.2,37.4,93,30.21,6.2,SW,6.9,-,N/A,Rain,Light Rain,230,2013-02-07 09:30:00
10:00 AM,39.2,39.2,100,30.18,6.2,SW,8.1,-,N/A,Rain,Light Rain,230,2013-02-07 10:00:00
10:30 AM,39.2,39.2,100,30.18,6.2,SW,8.1,-,N/A,Rain,Light Rain,220,2013-02-07 10:30:00
11:00 AM,39.2,39.2,100,30.15,6.2,SW,10.4,-,N/A,Rain,Light Rain,230,2013-02-07 11:00:00
11:30 AM,41.0,41.0,100,30.15,6.2,SW,15.0,-,N/A,,Mostly Cloudy,230,2013-02-07 11:30:00
12:00 PM,45,43,91,30.17,25,West,15.7,,,Rain,Light Rain,280,2013-02-07 12:00:00
12:00 PM,44.6,42.8,93,30.15,6.2,West,15.0,-,N/A,,Mostly Cloudy,280,2013-02-07 12:00:00
12:30 PM,46.4,42.8,87,30.12,6.2,WNW,16.1,-,N/A,,Mostly Cloudy,290,2013-02-07 12:30:00
1:00 PM,46.4,42.8,87,30.12,6.2,WNW,25.3,36.8,N/A,,Scattered Clouds,300,2013-02-07 13:00:00
1:30 PM,46.4,39.2,76,30.12,6.2,WNW,23.0,36.8,N/A,,Mostly Cloudy,300,2013-02-07 13:30:00
2:00 PM,48.2,39.2,71,30.12,6.2,WNW,27.6,44.9,N/A,,Mostly Cloudy,300,2013-02-07 14:00:00
2:30 PM,46.4,37.4,71,30.12,6.2,NW,26.5,38.0,N/A,,Partly Cloudy,310,2013-02-07 14:30:00
3:00 PM,46.4,35.6,66,30.12,6.2,NW,28.8,40.3,N/A,,Partly Cloudy,310,2013-02-07 15:00:00
3:30 PM,46.4,35.6,66,30.12,6.2,NW,27.6,40.3,N/A,,Scattered Clouds,310,2013-02-07 15:30:00
4:00 PM,46.4,37.4,71,30.12,6.2,NW,23.0,35.7,N/A,,Partly Cloudy,310,2013-02-07 16:00:00
4:30 PM,46.4,35.6,66,30.12,6.2,NW,27.6,39.1,N/A,,Partly Cloudy,310,2013-02-07 16:30:00
5:00 PM,46.4,35.6,66,30.12,6.2,NW,26.5,38.0,N/A,,Partly Cloudy,310,2013-02-07 17:00:00
5:30 PM,44.6,35.6,71,30.15,6.2,NW,26.5,-,N/A,,Scattered Clouds,310,2013-02-07 17:30:00
6:00 PM,44,36,66,30.19,16,NW,22.4,,,,Partly Cloudy,310,2013-02-07 18:00:00
6:00 PM,44.6,35.6,71,30.15,6.2,NW,21.9,35.7,N/A,,Partly Cloudy,310,2013-02-07 18:00:00
6:30 PM,42.8,37.4,81,30.18,6.2,NW,23.0,38.0,N/A,,Partly Cloudy,320,2013-02-07 18:30:00
7:00 PM,42.8,37.4,81,30.18,6.2,NW,17.3,-,N/A,,Partly Cloudy,310,2013-02-07 19:00:00
7:30 PM,42.8,37.4,81,30.21,6.2,NW,20.7,-,N/A,,Partly Cloudy,320,2013-02-07 19:30:00
8:00 PM,42.8,37.4,81,30.21,6.2,NW,16.1,-,N/A,,Mostly Cloudy,320,2013-02-07 20:00:00
8:30 PM,42.8,39.2,87,30.21,6.2,NW,18.4,29.9,N/A,,Mostly Cloudy,320,2013-02-07 20:30:00
9:00 PM,42.8,39.2,87,30.24,6.2,NW,15.0,-,N/A,,Scattered Clouds,310,2013-02-07 21:00:00
9:30 PM,42.8,37.4,81,30.24,6.2,NW,13.8,-,N/A,,Scattered Clouds,310,2013-02-07 21:30:00
10:00 PM,42.8,39.2,87,30.24,6.2,NW,13.8,-,N/A,,Scattered Clouds,310,2013-02-07 22:00:00
10:30 PM,42.8,39.2,87,30.24,6.2,NW,18.4,-,N/A,,Scattered Clouds,310,2013-02-07 22:30:00
11:00 PM,42.8,37.4,81,30.24,6.2,NW,17.3,-,N/A,,Scattered Clouds,320,2013-02-07 23:00:00
11:30 PM,42.8,37.4,81,30.24,6.2,NW,17.3,-,N/A,,Scattered Clouds,320,2013-02-07 23:30:00